Regional Weather Roundup
Issued by NWS Green Bay, WI

Home | Current Version | Previous Version | Text Only | Print | Product List | Glossary On
Versions: 1 2 3 4 5 6 7 8 9 10 11 12 13 14 15 16 17 18 19 20 21 22 23 24 25 26 27 28 29 30 31 32 33 34 35 36 37 38 39 40 41 42 43 44 45 46 47 48 49 50
000
ASUS43 KGRB 290600
RWRGRB

NORTH-CENTRAL AND NORTHEAST WISCONSIN REGIONAL WEATHER ROUNDUP
NATIONAL WEATHER SERVICE GREEN BAY WI
100 AM CDT SAT APR 29 2017

WIZ005-009-010>012-018-019-290700-
NORTH CENTRAL WISCONSIN

CITY           SKY/WX    TMP DP  RH WIND       PRES   REMARKS
IRONWOOD       NOT AVBL
MANITOWISH WTR NOT AVBL
ARBOR VITAE    NOT AVBL
EAGLE RIVER    NOT AVBL
LAND O LAKES   NOT AVBL
RHINELANDER    CLEAR     31  26  82 N3        30.13R
PHILLIPS       NOT AVBL
ANTIGO         NOT AVBL
TOMAHAWK       NOT AVBL
MERRILL        NOT AVBL
$$

WIZ013-073-290700-
NORTHEAST WISCONSIN

CITY           SKY/WX    TMP DP  RH WIND       PRES   REMARKS
IRON MOUNTAIN  CLEAR     31  23  72 NW7       30.11R
MARINETTE      PTCLDY    38  29  70 N8        30.12R
$$

WIZ017-030-035>037-045-290700-
CENTRAL WISCONSIN

CITY           SKY/WX    TMP DP  RH WIND       PRES   REMARKS
MEDFORD        NOT AVBL
WAUSAU         CLOUDY    36  28  73 N10       30.11R
MOSINEE        NOT AVBL
MARSHFIELD     CLOUDY    38  29  70 N5        30.11R
WISC RAPIDS    CLOUDY    42  31  64 NE5       30.12R
STEVENS POINT  NOT AVBL
WAUPACA        NOT AVBL
SHAWANO        NOT AVBL
CLINTONVILLE   NOT AVBL
WAUTOMA        CLOUDY    44  31  60 NE9       30.11R
$$

WIZ038-039-048-051-290700-
FOX VALLEY

CITY           SKY/WX    TMP DP  RH WIND       PRES   REMARKS
NWS GREEN BAY  CLOUDY    44  31  60 N12       30.11R
APPLETON       NOT AVBL
OSHKOSH        CLOUDY    45  32  60 N15       30.10R
FOND DU LAC    CLOUDY    47  35  63 NE16      30.10R
$$

WIZ022-050-052-290700-
EAST CENTRAL WISCONSIN

CITY           SKY/WX    TMP DP  RH WIND       PRES   REMARKS
EPHRAIM        NOT AVBL
WASHINGTON ISL NOT AVBL
STURGEON BAY   CLOUDY    42  30  62 N9        30.10R
MANITOWOC      NOT AVBL
SHEBOYGAN      CLOUDY    43  39  86 N9        30.08R
$$

LMZ563-521-522-541>543-290700-
LAKESHORE

STATION/POSITION TIME  TEMP    WIND        PRES    VSBY  WAVE
                       AIR SEA DIR/SP/G                  HT/PER
                 (UTC) (F)     (DEG/KT/KT) (MB)    (MI)  (FT/S)
SHEBOYGAN LKSHOR 0500   41     350/  7/  9 1018.1R
KEWAUNEE LKSHORE 0530   43     350/  9/ 12 1018.5R
NORTHPORT PIER   0540   40     330/ 17/ 22 1019.0S
N MID LAKE BUOY  0450   38 37   50/  2/  4 1020.1R         1/ 5
CHAMBERS ISLAND  0540   40     320/ 10/ 14 1019.0R
MENOMINEE LKSHOR 0530   42     340/ 11/ 13 1018.4R
$$




USA.gov is the U.S. government's official web portal to all federal, state and local government web resources and services.